Погода Чёрный Яр

Погода Чёрный Яр : погода сейчас, прогноз погоды и архив. Всё, что Вы хотите узнать о погоде Чёрный Яр!

Поиск расширенной информации на нашем сайте:

Другие новости

Новости СМИ2

Главная страница сайта

Новости сайта

02.10.2013

Напоминаем, что на нашем новом сайте вы можете получить высокодетализированные прогнозы погоды по пунктам России, СНГ и мира (включающие важные для авиации метеовеличины, такие как направление и скорость ветра, видимость, явления погоды, количество и форма облачности, нижняя и верхняя граница облачности), а также ознакомиться с разнообразными материалами по авиационной метеорологии и подборкой полезных ссылок на эту тему.

Сайт Метеоцентр.Азия посвящён разработке технологий оптимизации авиаметеорологического обслуживания, включая проектирование и перспективное создание нескольких автоматизированных авиаметеорологических систем:
- система выпуска высокодетальных прогностических карт явлений погоды для нижнего воздушного пространства по России и ближнему зарубежью;
- система верификации прогнозов TAF (выпускаемых синоптиками официальных АМСГ РФ и ближнего зарубежья) и AUTOTAF (выпускаемых сайтом Метеоцентр.Азия) - выявление ошибок, онлайн-сопоставление с фактической погодой METAR, автоматическое внесение коррективов в прогнозы при резком отклонении фактической погоды от прогноза, подсчёт оправдываемости прогнозов по элементам и в целом;
- система обработки, анализа и отображения авиаметеорологической информации для применения провайдерами метеорологической информации.

Рекомендуем: Изготовление деревянных крестов здесь.

Погода Чёрный Яр - сегодня

Время (UTC), дата Ветер
(°,м/с) 
Видим.   Явления Облачность Т
(°С)
Тd
(°С)
f(%) Тe
(°С)
Pmin
(гПа)
dP
(гПа)
Po
(мм)
O2
(г/м3)
Тmin Tmax R s Состояние
почвы
09 26.04.17 210 (ЮЗ) 10 км    3/3 1000 м 
[Cu hum]
+15.7 -4.4 25 +16  1031.9  0.2  773  295           
12 26.04.17 270 (З) 10 км    3/3 1000 м 
[Cu hum]
+16.2 -3.2 26 +17  1031.5  -0.5  773  294           
15 26.04.17 190 (Ю) 10 км    1/0 средняя 
[Ac cuf]
+15.5 -1.5 31 +16  1031.2  -0.3  773  295    +16.8       
18 26.04.17 150 (ЮВ) 10 км    ясно 
+9.8 +1.6 57 +10  1031.9  0.8  773  301           
21 26.04.17 140 (ЮВ) 10 км    ясно 
+8.3 +0.4 57 +8  1032.2  0.2  774  302           
00 27.04.17 160 (Ю) 10 км    ясно 
+5.7 +1.2 73 +5  1032.8  0.6  774  305           
03 27.04.17 100 (В) 10 км    ясно 
+6.3 +1.6 72 +7  1033.7  0.9  775  305  +4.2        сухая 
06 27.04.17 130 (ЮВ) 10 км    ясно 
+13.5 -1.6 35 +13  1033.6  -0.1  775  298           
09 27.04.17 150 (ЮВ) 5{11}  10 км    ясно 
+16.4 -1.6 29 +16  1033  -0.6  774  295           
12 27.04.17 230 (ЮЗ) 8{10}  10 км    ясно 
+19 -3.9 21 +19  1031.3  -1.7  773  292           
15 27.04.17 140 (ЮВ) 4{10}  10 км    1/0 верхняя 
[Ci fib]
+16.7 -1.3 29 +17  1030.6  -0.7  772  293    +19.2       
18 27.04.17 150 (ЮВ) 10 км    ясно 
+11.7 -0.4 43 +11  1031.5  0.9  773  299           
21 27.04.17 080 (В) 10 км    ясно 
+8.2 +0 56 +8  1030.9  -0.6  773  302           
00 28.04.17 120 (ЮВ) 10 км    ясно 
+7.2 +2.7 73 +6  1029.6  -1.3  772  303           
03 28.04.17 090 (В) 10 км    ясно 
+7.4 +4.3 81 +7  1029.6  772  302  +6        сухая 
06 28.04.17 110 (В) 10 км    ясно 
+16.6 +2 37 +17  1029.2  -0.4  771  293           
09 28.04.17 110 (В) 6-11{12}  10 км    ясно 
+20.1 +0.5 27 +20  1028.1  -1.1  771  289           
12 28.04.17 120 (ЮВ) 6-11{13}  10 км    ясно 
+21.8 -1.8 21 +22  1026  -2.1  769  287           
15 28.04.17 120 (ЮВ) 5-11{13}  10 км    ясно 
+18.9 -3.8 21 +19  1025.7  -0.3  769  290    +22       
18 28.04.17 110 (В) 4{11}  10 км    1/0 средняя 
[Ac cast]
+14 +0.4 39 +14  1026.5  0.8  769  295           
21 28.04.17 080 (В) 10 км    1/0 средняя 
[Ac cast]
+10.5 +2.2 56 +10  1025.6  -0.8  769  298           
00 29.04.17 080 (В) 10 км    ясно 
+8.3 +2.5 67 +8  1024.6  -1.1  768  300           
03 29.04.17 080 (В) 10 км    6/0 средняя 
[Ac cast]
+9.6 +4.3 69 +10  1024.1  -0.5  768  298  +8.3        сухая 
06 29.04.17 100 (В) 4{10}  10 км    8/0 средняя, верхняя 
[Ac cast|Ci fib]
+17.7 +3 37 +18  1024.1  768  290           
09 29.04.17 120 (ЮВ) 6-12{13}  10 км    8/0 средняя, верхняя 
[Ac cast|Ci]
+21.3 +1.4 27 +21  1023.8  -0.2  767  287           
Время (UTC), дата Ветер
(°,м/с) 
Видим.   Явления Облачность Т
(°С)
Тd
(°С)
f(%) Тe
(°С)
Pmin
(гПа)
dP
(гПа)
Po
(мм)
O2
(г/м3)
Тmin Tmax R s Состояние
почвы

Для получения пояснительной информации подведите курсор к названию столбца.

ПОГОДА Чёрный Яр - архив

Всё, что Вы хотите узнать о погоде Чёрный Яр - удобно и подробно!

Выберите нужную дату (начиная с 1 января 2015* года) и нажмите кнопку "Найти".
Будут отображены архивные сводки погоды по пункту Чёрный Яр, начиная с указанной даты.


Отображать данные в формате CSV (для использования в таблицах Excel)


Внимание! Наш архив погоды предназначен исключительно для личного некоммерческого использования в познавательных целях. Если Вам необходимы официальные справки о состоянии погоды (для производственных, юридических, коммерческих и т.п. целей), обращайтесь в органы Росгидромета.

*Примечание: данная дата относится к архиву по метеостанциям СССР (Россия, СНГ, Балтия).
Архив по метеостанциям Зарубежной Европы и Азии (кроме Китая) хранится 10 дней, по другим регионам земного шара (Китай, Африка, Америка, Австралия, Океания) - 1 день.

Чёрный Яр - район местоположения метеостанции


Название, широта, долгота, высота метеостанции:
Чёрный Яр 48.1°ш. 46.1°д. 5 м над ур. моря [Российская Федерация]

Дополнительная информация

В oтличие oт бoльшинства пoгoдных сайтoв мы публикуем пoдрoбную метеoинфoрмацию в детальнoм прoфессиoнальнoм фoрмате.

Характеристики температуры и влажнoсти вoздуха измеряются на высoте 2 м в тени вдали oт зданий и деревьев.
Скoрoсть ветра измеряется на высoте 10 м (на урoвне рoста челoвека скoрoсть ветра ниже в 1.5-2 раза). Если метеoстанция нахoдится в гoрoде или в лесу, тo скoрoсть ветра занижена на 2-4 м/с пo сравнению с oткрытым местoм. Скoрoсть ветра над акватoриями крупных рек и oзёр, а также на вершинах хoлмoв на 2-5 м/с выше, чем в oбычных услoвиях.
Атмoсфернoе давление в разных тoчках местнoсти мoжет значительнo oтличаться oт давления на метеoстанции, в зависимoсти oт услoвий рельефа (при пoдъёме на 10 м давление пoнижается примернo на 1 мм рт.ст.).